Portsmouth, NH

11:27 PM EDT on September 18, 2019 (GMT -0400)
Pease International Tradeport

Weather History for KPSM - August, 2019

Change the Weather History Date:

Thursday, August 22, 2019

  Actual Average Record
Temperature  
Mean Temperature 76 °F -  
Max Temperature 87 °F 77 °F 93 °F (1976)
Min Temperature 66 °F 58 °F 36 °F (1982)
Cooling Degree Days 11    
Growing Degree Days 26 (Base 50)    
Moisture  
Dew Point 69 °F    
Average Humidity 76    
Maximum Humidity 99    
Minimum Humidity 47    
Precipitation  
Precipitation 0.05 in - - ()
Sea Level Pressure  
Sea Level Pressure 29.80 in    
Wind  
Wind Speed 5 mph ()    
Max Wind Speed 12 mph    
Max Gust Speed -    
Visibility 8.5 miles    
Events Rain , Thunderstorm    
Averages and records for this station are not official NWS values.
T = Trace of Precipitation, MM = Missing Value Source: Averaged Metar Reports

Daily Weather History Graph

Daily Weather History Graph

Search for Another Location

Airport or City:

Astronomy

Aug. 22, 2019 Rise Set
Actual Time 5:56 AM EDT 7:35 PM EDT
Civil Twilight 5:26 AM EDT 8:05 PM EDT
Nautical Twilight 4:49 AM EDT 8:41 PM EDT
Astronomical Twilight 4:10 AM EDT 9:20 PM EDT
Moon 11:12 PM EDT (8/22) 12:38 PM EDT (8/22)
Length of Visible Light 14h 38m
Length of Day
13h 38m
Waning Gibbous, 60% of the Moon is Illuminated
Aug 22
Waning Gibbous
Aug 23
Last Quarter
Aug 30
New
Sep 5
First Quarter
Sep 14
Full

Hourly Weather History & Observations

Time (EDT) Temp. Heat Index Dew Point Humidity Pressure Visibility Wind Dir Wind Speed Gust Speed Precip Events Conditions
12:56 AM 71.6 °F - 71.2 °F 99% 29.79 in 6.0 mi WSW 6.9 mph - N/A   Scattered Clouds
1:56 AM 71.2 °F - 70.0 °F 96% 29.79 in 6.0 mi WSW 6.9 mph - N/A   Scattered Clouds
2:56 AM 69.4 °F - 68.9 °F 98% 29.80 in 6.0 mi WSW 5.8 mph - N/A   Scattered Clouds
3:56 AM 68.7 °F - 67.5 °F 96% 29.80 in 6.0 mi SW 3.5 mph - N/A   Partly Cloudy
4:56 AM 67.1 °F - 66.6 °F 98% 29.80 in 6.0 mi SW 4.6 mph - N/A   Partly Cloudy
5:56 AM 66.7 °F - 66.4 °F 99% 29.82 in 10.0 mi SW 5.8 mph - N/A   Scattered Clouds
6:56 AM 68.5 °F - 67.6 °F 97% 29.83 in 7.0 mi SSW 3.5 mph - N/A   Scattered Clouds
7:56 AM 70.5 °F - 68.0 °F 92% 29.84 in 10.0 mi SW 3.5 mph - N/A   Scattered Clouds
8:56 AM 73.9 °F - 68.0 °F 82% 29.83 in 10.0 mi South 3.5 mph - N/A   Scattered Clouds
9:56 AM 77.4 °F - 69.1 °F 76% 29.83 in 10.0 mi Calm Calm - N/A   Scattered Clouds
10:56 AM 81.7 °F 85.8 °F 70.9 °F 70% 29.83 in 10.0 mi WSW 4.6 mph - N/A   Scattered Clouds
11:56 AM 84.7 °F 90.4 °F 71.6 °F 65% 29.81 in 10.0 mi WSW 4.6 mph - N/A   Mostly Cloudy
12:56 PM 86.7 °F 91.7 °F 70.5 °F 58% 29.80 in 10.0 mi SW 6.9 mph - N/A   Mostly Cloudy
1:50 PM 82.4 °F 87.2 °F 71.6 °F 70% 29.78 in 8.0 mi ESE 6.9 mph - N/A Rain Light Rain
1:56 PM 81.5 °F 86.3 °F 72.7 °F 74% 29.78 in 7.0 mi ESE 4.6 mph - 0.01 in Rain Light Rain
2:00 PM 80.6 °F 85.4 °F 73.4 °F 79% 29.78 in 5.0 mi East 4.6 mph - N/A Rain Light Rain
2:14 PM 78.8 °F - 73.4 °F 83% 29.79 in 7.0 mi Calm Calm - N/A   Mostly Cloudy
2:25 PM 82.4 °F 88.2 °F 73.4 °F 74% 29.79 in 7.0 mi West 4.6 mph - N/A Thunderstorm Mostly Cloudy
2:32 PM 84.2 °F 90.9 °F 73.4 °F 70% 29.79 in 7.0 mi WSW 4.6 mph - N/A Thunderstorm Thunderstorm
2:48 PM 86.0 °F 93.4 °F 73.4 °F 66% 29.79 in 7.0 mi SSW 9.2 mph - N/A Thunderstorm Mostly Cloudy
2:56 PM 83.8 °F 89.8 °F 72.9 °F 69% 29.79 in 10.0 mi South 8.1 mph - 0.04 in   Mostly Cloudy
3:56 PM 86.5 °F 92.9 °F 72.0 °F 62% 29.78 in 10.0 mi SW 8.1 mph - N/A   Mostly Cloudy
4:56 PM 86.7 °F 88.1 °F 64.0 °F 47% 29.77 in 10.0 mi West 11.5 mph - N/A   Scattered Clouds
5:56 PM 84.6 °F 85.9 °F 63.9 °F 50% 29.78 in 10.0 mi WSW 8.1 mph - N/A   Scattered Clouds
6:56 PM 82.0 °F 83.8 °F 64.8 °F 56% 29.79 in 10.0 mi West 5.8 mph - N/A   Mostly Cloudy
7:56 PM 78.3 °F - 63.7 °F 61% 29.80 in 10.0 mi West 4.6 mph - N/A   Mostly Cloudy
8:56 PM 75.2 °F - 64.2 °F 69% 29.82 in 10.0 mi West 3.5 mph - N/A   Scattered Clouds
9:56 PM 73.0 °F - 63.9 °F 73% 29.83 in 10.0 mi West 5.8 mph - N/A   Mostly Cloudy
10:57 PM 72.5 °F - 63.0 °F 72% 29.84 in 10.0 mi WSW 4.6 mph - N/A   Mostly Cloudy
11:56 PM 72.3 °F - 61.5 °F 69% 29.86 in 10.0 mi WNW 4.6 mph - N/A   Overcast